Location: Unspecified
(0.0000°N, 0.0000°E)
Time: 09:29:17
(UTC+00:00)

ISS - Visible Passes

Search period start: 17 October 2017 00:00
Search period end: 27 October 2017 00:00
Orbit: 401 x 408 km, 51.6° (Epoch: 18 October)

Date Brightness Start Highest point End Pass type
(mag) Time Alt. Az. Time Alt. Az. Time Alt. Az.
19 Oct -1.6 19:27:18 10° NW 19:28:44 23° WNW 19:28:44 23° WNW visible
20 Oct -3.7 18:35:01 10° NNW 18:38:13 53° NE 18:40:49 14° SE visible
21 Oct -0.6 19:20:40 10° W 19:22:12 13° SW 19:23:45 10° SSW visible
22 Oct -0.4 05:18:31 10° SSE 05:19:50 12° SE 05:21:09 10° ESE visible
22 Oct -1.9 18:26:56 10° WNW 18:29:53 32° SW 18:32:53 10° S visible
24 Oct -2.5 05:08:24 10° SSW 05:11:32 44° SE 05:14:38 10° NE visible
25 Oct -0.7 04:17:03 10° SSE 04:19:12 16° SE 04:21:20 10° E visible
26 Oct -3.3 05:00:04 10° SW 05:03:07 37° NW 05:06:10 10° NNE visible
